Tracking 20942 objects as of 15-Jul-2020
HD Live streaming from Space Station
objects crossing your sky now

FENGYUN 1C DEB

Track FENGYUN 1C DEB now!
10-day predictions


NORAD ID: 30678
Int'l Code: 1999-025AQL
Perigee: 823.0 km
Apogee: 976.3 km
Inclination: 99.0 °
Period: 102.8 minutes
Semi major axis: 7270 km
RCS: 0.0357 m2 (small)
Launch date: May 10, 1999
Source: People's Republic of China (PRC)
Launch site: Taiyaun Space Center, China (TSC)

Note: This is SATELLITE DEBRIS
aabbcc
Your satellite tracking list
Your tracking list is empty




NASA's NSSDC Master Catalog

Two Line Element Set (TLE):
1 30678U 99025AQL 20196.50955015  .00000556  00000-0  38653-3 0  9991
2 30678  99.0314 121.9736 0105430 357.5017  57.4836 14.00378724680791
Source of the keplerian elements: AFSPC